Location: Arrodets-la-Barthe
(43.0306°N, 0.2829°E)
Time: 16:11:28
(UTC+00:00)

Cosmos 2322 - Visible Passes

Search period start: 22 May 2022 00:00
Search period end: 01 June 2022 00:00
Orbit: 839 x 856 km, 71.0° (Epoch: 21 May)

Date Brightness Start Highest point End Pass type
(mag) Time Alt. Az. Time Alt. Az. Time Alt. Az.
22 May 4.3 01:14:02 40° WSW 01:15:30 49° WNW 01:21:04 10° NNE visible
22 May 5.1 23:18:52 25° E 23:18:52 25° E 23:22:56 10° NE visible
23 May 4.3 01:00:47 41° W 01:02:10 50° WNW 01:07:45 10° NNE visible
23 May 6.2 02:47:23 10° NW 02:47:49 10° NW 02:48:17 10° NNW visible
23 May 5.1 23:05:35 24° E 23:05:35 24° E 23:09:34 10° NE visible
24 May 4.2 00:47:29 42° WSW 00:48:51 51° WNW 00:54:26 10° NNE visible
24 May 6.2 02:33:41 10° NW 02:34:29 10° NW 02:35:17 10° NNW visible
24 May 5.1 22:52:15 24° E 22:52:15 24° E 22:56:13 10° NE visible
25 May 4.2 00:34:10 42° WSW 00:35:31 52° WNW 00:41:08 10° NNE visible
25 May 6.2 02:20:05 10° NW 02:21:08 10° NW 02:22:11 10° NNW visible
25 May 5.1 22:38:53 23° E 22:38:53 23° E 22:42:52 10° NE visible
26 May 4.2 00:20:47 43° WSW 00:22:12 53° WNW 00:27:49 10° NNE visible
26 May 6.2 02:06:33 10° NW 02:07:47 11° NW 02:09:02 10° NNW visible
26 May 5.1 22:25:29 23° E 22:25:29 23° E 22:29:31 10° NE visible
27 May 4.2 00:07:23 42° WSW 00:08:52 54° WNW 00:14:29 10° NNE visible
27 May 6.2 01:53:02 10° NW 01:54:26 11° NW 01:55:51 10° NNW visible
27 May 5.0 22:12:01 23° E 22:12:01 23° E 22:16:09 10° NE visible
27 May 4.2 23:53:54 41° WSW 23:55:32 55° WNW 00:01:11 10° NNE visible
28 May 6.2 01:39:32 10° NW 01:41:05 11° NW 01:42:39 10° NNW visible
28 May 5.0 21:58:30 22° E 21:58:30 22° E 22:02:48 10° NE visible
28 May 4.2 23:40:23 39° WSW 23:42:13 56° WNW 23:47:52 10° NNE visible
29 May 6.3 01:26:03 10° WNW 01:27:44 11° NW 01:29:26 10° NNW visible
29 May 5.0 21:44:54 22° ESE 21:45:11 22° E 21:49:27 10° NE visible
29 May 4.2 23:26:48 36° WSW 23:28:54 57° WNW 23:34:33 10° NNE visible
30 May 6.3 01:12:35 10° WNW 01:14:24 11° NW 01:16:13 10° NNW visible
30 May 5.0 21:31:14 21° ESE 21:31:52 21° E 21:36:05 10° NE visible
30 May 4.2 23:13:07 33° SW 23:15:34 58° WNW 23:21:14 10° NNE visible
31 May 6.3 00:59:08 10° WNW 01:01:03 12° NW 01:02:59 10° NNW visible
31 May 5.0 21:17:29 20° ESE 21:18:34 21° E 21:22:43 10° NE visible
31 May 4.1 22:59:21 29° SW 23:02:14 59° WNW 23:07:56 10° NNE visible
